Simultaneous Nadir Overpasses (SNOs) Predictions

Prediction of SNOs between GOES-17 and METOP-B Satellite Orbit:

Table of predicted SNOs for the next 14.0 days since TLE Epoch: 5/25/2024
Index Date Time (GOES-17) GOES-17 Lat,Lon METOP-B Lat,Lon Distance(km) Time Diff (sec)
1 05/25/2024 16:24:46 -0.03,-104.72 0.22,-105.83 126.48 80
2 05/26/2024 16:06:43 -0.04,-104.72 -0.88,-100.83 442.91 80
3 05/28/2024 04:25:39 0.05,-104.70 -0.14,-105.42 82.61 80
4 05/29/2024 04:02:18 0.05,-104.70 1.02,-100.43 486.84 80
5 05/30/2024 16:23:44 -0.06,-104.71 0.03,-104.98 30.67 80
6 06/02/2024 04:19:18 0.06,-104.70 0.08,-104.57 14.58 80
7 06/04/2024 16:20:02 -0.06,-104.71 -0.16,-104.12 67.16 80
8 06/06/2024 04:38:58 0.05,-104.70 -0.82,-108.72 457.48 80
9 06/07/2024 04:15:36 0.06,-104.70 0.31,-103.72 112.09 80
